Wetterdaten: Samstag, 05.07.2003
Datum Zeit Temp. A. Feuchte A. Luftdruck Regen Wind Richtung Richtung Sonnenschein Helligkeit Taupunkt Windchill
05.07.2003 00:00 14,4 C 80 % 1014 hPa 0,0 l/m 6,9 m/s (2 Bft) W45 260 0,00 min 0 lux 11,0 C 7,8 C
05.07.2003 00:05 14,4 C 80 % 1014 hPa 0,0 l/m 7,9 m/s (2 Bft) W-SW45 250 0,00 min 0 lux 11,0 C 7,1 C
05.07.2003 00:10 14,3 C 79 % 1014 hPa 0,0 l/m 7,9 m/s (2 Bft) W22.5 275 0,00 min 0 lux 10,7 C 7,0 C
05.07.2003 00:15 14,2 C 78 % 1014 hPa 0,0 l/m 6,6 m/s (2 Bft) W45 260 0,00 min 0 lux 10,4 C 7,8 C
05.07.2003 00:20 14,2 C 78 % 1014 hPa 0,0 l/m 8,1 m/s (2 Bft) W45 265 0,00 min 0 lux 10,4 C 6,7 C
05.07.2003 00:25 14,1 C 77 % 1014 hPa 0,0 l/m 4,3 m/s (1 Bft) W45 270 0,00 min 0 lux 10,1 C 9,9 C
05.07.2003 00:30 14,1 C 77 % 1014 hPa 0,0 l/m 8,6 m/s (2 Bft) W45 270 0,00 min 0 lux 10,1 C 6,3 C
05.07.2003 00:35 14,1 C 76 % 1014 hPa 0,0 l/m 6,2 m/s (2 Bft) W67.5 265 0,00 min 0 lux 9,9 C 8,0 C
05.07.2003 00:40 14,0 C 77 % 1014 hPa 0,0 l/m 4,4 m/s (1 Bft) W45 260 0,00 min 0 lux 10,0 C 9,7 C
05.07.2003 00:45 14,0 C 76 % 1014 hPa 0,0 l/m 5,0 m/s (1 Bft) W45 260 0,00 min 0 lux 9,8 C 9,0 C
05.07.2003 00:50 14,0 C 76 % 1014 hPa 0,0 l/m 4,6 m/s (1 Bft) W-SW22.5 255 0,00 min 0 lux 9,8 C 9,4 C
05.07.2003 00:55 14,1 C 76 % 1014 hPa 0,0 l/m 5,4 m/s (1 Bft) W-SW22.5 250 0,00 min 0 lux 9,9 C 8,7 C
05.07.2003 01:00 14,1 C 76 % 1014 hPa 0,0 l/m 5,2 m/s (1 Bft) W-SW22.5 250 0,00 min 0 lux 9,9 C 8,9 C
05.07.2003 01:05 14,0 C 76 % 1014 hPa 0,0 l/m 6,1 m/s (2 Bft) W22.5 260 0,00 min 0 lux 9,8 C 8,0 C
05.07.2003 01:10 14,0 C 76 % 1014 hPa 0,0 l/m 6,1 m/s (2 Bft) W-SW22.5 255 0,00 min 0 lux 9,8 C 7,9 C
05.07.2003 01:15 14,0 C 76 % 1014 hPa 0,0 l/m 4,2 m/s (1 Bft) W45 265 0,00 min 0 lux 9,8 C 9,9 C
05.07.2003 01:20 13,9 C 77 % 1014 hPa 0,0 l/m 4,3 m/s (1 Bft) W45 260 0,00 min 0 lux 9,9 C 9,7 C
05.07.2003 01:25 13,9 C 77 % 1014 hPa 0,0 l/m 3,5 m/s (1 Bft) W22.5 275 0,00 min 0 lux 9,9 C 10,8 C
05.07.2003 01:30 13,9 C 78 % 1014 hPa 0,0 l/m 3,5 m/s (1 Bft) W45 260 0,00 min 0 lux 10,1 C 10,8 C
05.07.2003 01:35 13,9 C 78 % 1014 hPa 0,0 l/m 3,5 m/s (1 Bft) W22.5 260 0,00 min 0 lux 10,1 C 10,7 C
05.07.2003 01:40 13,9 C 78 % 1014 hPa 0,0 l/m 2,7 m/s (1 Bft) W-SW22.5 255 0,00 min 0 lux 10,1 C 12,1 C
05.07.2003 01:45 13,8 C 78 % 1014 hPa 0,0 l/m 2,7 m/s (1 Bft) W-SW22.5 255 0,00 min 0 lux 10,0 C 11,9 C
05.07.2003 01:50 13,9 C 78 % 1014 hPa 0,0 l/m 3,2 m/s (1 Bft) W-SW22.5 250 0,00 min 0 lux 10,1 C 11,2 C
05.07.2003 01:55 13,9 C 78 % 1014 hPa 0,0 l/m 3,8 m/s (1 Bft) W-SW22.5 250 0,00 min 0 lux 10,1 C 10,3 C
05.07.2003 02:00 13,9 C 78 % 1014 hPa 0,0 l/m 4,1 m/s (1 Bft) W-SW22.5 250 0,00 min 0 lux 10,1 C 9,9 C
05.07.2003 02:05 13,9 C 78 % 1014 hPa 0,0 l/m 5,8 m/s (2 Bft) W-SW22.5 250 0,00 min 0 lux 10,1 C 8,1 C
05.07.2003 02:10 14,0 C 78 % 1014 hPa 0,0 l/m 4,7 m/s (1 Bft) W22.5 260 0,00 min 0 lux 10,2 C 9,3 C
05.07.2003 02:15 13,9 C 78 % 1014 hPa 0,0 l/m 5,4 m/s (1 Bft) W45 260 0,00 min 0 lux 10,1 C 8,5 C
05.07.2003 02:20 14,0 C 78 % 1014 hPa 0,0 l/m 3,7 m/s (1 Bft) W-SW22.5 250 0,00 min 0 lux 10,2 C 10,6 C
05.07.2003 02:25 14,0 C 78 % 1014 hPa 0,0 l/m 5,7 m/s (1 Bft) W-SW22.5 250 0,00 min 0 lux 10,2 C 8,3 C
05.07.2003 02:30 14,0 C 78 % 1014 hPa 0,0 l/m 4,0 m/s (1 Bft) W-SW45 250 0,00 min 0 lux 10,2 C 10,2 C
05.07.2003 02:35 14,0 C 78 % 1014 hPa 0,0 l/m 3,8 m/s (1 Bft) W-SW45 250 0,00 min 0 lux 10,2 C 10,4 C
05.07.2003 02:40 14,0 C 78 % 1014 hPa 0,0 l/m 4,2 m/s (1 Bft) W-SW45 250 0,00 min 0 lux 10,2 C 9,9 C
05.07.2003 02:45 14,0 C 79 % 1014 hPa 0,0 l/m 3,0 m/s (1 Bft) W-SW22.5 250 0,00 min 0 lux 10,4 C 11,6 C
05.07.2003 02:50 13,9 C 80 % 1014 hPa 0,0 l/m 4,8 m/s (1 Bft) W-SW22.5 255 0,00 min 0 lux 10,5 C 9,1 C
05.07.2003 02:55 13,8 C 81 % 1014 hPa 0,0 l/m 4,0 m/s (1 Bft) W-SW22.5 250 0,00 min 0 lux 10,6 C 10,0 C
05.07.2003 03:00 13,9 C 81 % 1014 hPa 0,0 l/m 3,6 m/s (1 Bft) W45 260 0,00 min 0 lux 10,7 C 10,6 C
05.07.2003 03:05 13,9 C 81 % 1014 hPa 0,0 l/m 3,6 m/s (1 Bft) W45 260 0,00 min 0 lux 10,7 C 10,6 C
05.07.2003 03:10 13,8 C 81 % 1014 hPa 0,0 l/m 6,8 m/s (2 Bft) W-SW22.5 255 0,00 min 0 lux 10,6 C 7,1 C
05.07.2003 03:15 13,8 C 82 % 1014 hPa 0,0 l/m 4,3 m/s (1 Bft) W22.5 260 0,00 min 0 lux 10,8 C 9,6 C
05.07.2003 03:20 13,8 C 82 % 1014 hPa 0,0 l/m 4,1 m/s (1 Bft) W22.5 260 0,00 min 0 lux 10,8 C 9,9 C
05.07.2003 03:25 13,8 C 82 % 1014 hPa 0,0 l/m 3,1 m/s (1 Bft) W-SW22.5 250 0,00 min 0 lux 10,8 C 11,2 C
05.07.2003 03:30 13,9 C 82 % 1014 hPa 0,0 l/m 5,1 m/s (1 Bft) W-SW22.5 250 0,00 min 0 lux 10,9 C 8,8 C
05.07.2003 03:35 13,8 C 82 % 1014 hPa 0,0 l/m 4,5 m/s (1 Bft) W-SW22.5 255 0,00 min 0 lux 10,8 C 9,3 C
05.07.2003 03:40 13,7 C 83 % 1014 hPa 0,0 l/m 4,0 m/s (1 Bft) W-SW22.5 255 0,00 min 0 lux 10,9 C 9,9 C
05.07.2003 03:45 13,7 C 84 % 1014 hPa 0,0 l/m 4,8 m/s (1 Bft) W-SW22.5 255 0,00 min 0 lux 11,0 C 8,9 C
05.07.2003 03:50 13,6 C 84 % 1014 hPa 0,0 l/m 3,5 m/s (1 Bft) W-SW22.5 250 0,00 min 0 lux 10,9 C 10,5 C
05.07.2003 03:55 13,6 C 85 % 1014 hPa 0,0 l/m 4,6 m/s (1 Bft) W22.5 260 0,00 min 0 lux 11,1 C 8,9 C
05.07.2003 04:00 13,5 C 85 % 1014 hPa 0,0 l/m 3,6 m/s (1 Bft) W-SW22.5 255 0,00 min 0 lux 11,0 C 10,1 C
05.07.2003 04:05 13,6 C 86 % 1014 hPa 0,4 l/m 4,5 m/s (1 Bft) W-SW22.5 255 0,00 min 0 lux 11,3 C 9,1 C
05.07.2003 04:10 13,5 C 86 % 1014 hPa 0,0 l/m 2,7 m/s (1 Bft) W22.5 260 0,00 min 0 lux 11,2 C 11,6 C
05.07.2003 04:15 13,7 C 85 % 1014 hPa 0,0 l/m 4,9 m/s (1 Bft) W-SW45 250 0,00 min 0 lux 11,2 C 8,7 C
05.07.2003 04:20 13,7 C 85 % 1014 hPa 0,0 l/m 5,7 m/s (1 Bft) W45 265 0,00 min 0 lux 11,2 C 7,9 C
05.07.2003 04:25 13,7 C 84 % 1014 hPa 0,0 l/m 3,5 m/s (1 Bft) W22.5 260 0,00 min 0 lux 11,0 C 10,5 C
05.07.2003 04:30 13,7 C 84 % 1014 hPa 0,0 l/m 5,3 m/s (1 Bft) W-SW22.5 255 0,00 min 0 lux 11,0 C 8,3 C
05.07.2003 04:35 13,7 C 84 % 1014 hPa 0,0 l/m 3,9 m/s (1 Bft) W-SW22.5 255 0,00 min 0 lux 11,0 C 9,9 C
05.07.2003 04:40 13,7 C 84 % 1014 hPa 0,0 l/m 4,9 m/s (1 Bft) W-SW22.5 250 0,00 min 0 lux 11,0 C 8,8 C
05.07.2003 04:45 13,6 C 84 % 1014 hPa 0,0 l/m 1,8 m/s (1 Bft) W22.5 260 0,00 min 0 lux 10,9 C 13,6 C
05.07.2003 04:50 13,6 C 84 % 1014 hPa 0,0 l/m 1,5 m/s (1 Bft) W-SW22.5 245 0,00 min 0 lux 10,9 C 13,6 C
05.07.2003 04:55 13,6 C 84 % 1014 hPa 0,0 l/m 2,7 m/s (1 Bft) W-SW22.5 245 0,00 min 0 lux 10,9 C 11,7 C
05.07.2003 05:00 13,6 C 84 % 1014 hPa 0,0 l/m 2,6 m/s (1 Bft) W22.5 265 0,00 min 0 lux 10,9 C 11,9 C
05.07.2003 05:05 13,5 C 84 % 1014 hPa 0,0 l/m 1,9 m/s (1 Bft) W-SW 245 0,00 min 0 lux 10,8 C 13,1 C
05.07.2003 05:10 13,5 C 84 % 1014 hPa 0,0 l/m 2,8 m/s (1 Bft) W-SW22.5 250 0,00 min 38 lux 10,8 C 11,4 C
05.07.2003 05:15 13,5 C 84 % 1014 hPa 0,0 l/m 1,8 m/s (1 Bft) W-SW22.5 255 0,00 min 99 lux 10,8 C 13,5 C
05.07.2003 05:20 13,4 C 85 % 1014 hPa 0,0 l/m 1,6 m/s (1 Bft) W-SW22.5 245 0,00 min 160 lux 10,9 C 13,4 C
05.07.2003 05:25 13,4 C 85 % 1014 hPa 0,0 l/m 1,3 m/s (1 Bft) W-SW22.5 245 0,00 min 204 lux 10,9 C 13,4 C
05.07.2003 05:30 13,4 C 85 % 1014 hPa 0,0 l/m 2,1 m/s (1 Bft) W-SW22.5 250 0,00 min 299 lux 10,9 C 12,6 C
05.07.2003 05:35 13,5 C 85 % 1014 hPa 0,0 l/m 2,4 m/s (1 Bft) W22.5 260 0,00 min 309 lux 11,0 C 12,2 C
05.07.2003 05:40 13,5 C 85 % 1014 hPa 0,0 l/m 2,2 m/s (1 Bft) W22.5 260 0,00 min 401 lux 11,0 C 12,6 C
05.07.2003 05:45 13,5 C 85 % 1014 hPa 0,0 l/m 1,9 m/s (1 Bft) W-SW22.5 250 0,00 min 393 lux 11,0 C 13,3 C
05.07.2003 05:50 13,5 C 85 % 1014 hPa 0,0 l/m 2,7 m/s (1 Bft) W-SW22.5 250 0,00 min 510 lux 11,0 C 11,7 C
05.07.2003 05:55 13,5 C 85 % 1014 hPa 0,0 l/m 4,3 m/s (1 Bft) W-SW45 250 0,00 min 405 lux 11,0 C 9,2 C
05.07.2003 06:00 13,5 C 85 % 1014 hPa 0,0 l/m 2,9 m/s (1 Bft) W-SW22.5 250 0,00 min 563 lux 11,0 C 11,3 C
05.07.2003 06:05 13,5 C 85 % 1014 hPa 0,0 l/m 1,9 m/s (1 Bft) W-SW22.5 245 0,00 min 528 lux 11,0 C 13,2 C
05.07.2003 06:10 13,5 C 85 % 1014 hPa 0,0 l/m 2,1 m/s (1 Bft) W-SW22.5 245 0,00 min 394 lux 11,0 C 12,8 C
05.07.2003 06:15 13,5 C 85 % 1014 hPa 0,0 l/m 1,9 m/s (1 Bft) W-SW 245 0,00 min 665 lux 11,0 C 13,2 C
05.07.2003 06:20 13,6 C 85 % 1014 hPa 0,0 l/m 1,3 m/s (1 Bft) W-SW 240 0,00 min 841 lux 11,1 C 13,6 C
05.07.2003 06:25 13,5 C 86 % 1014 hPa 0,0 l/m 0,0 m/s (0 Bft) W-SW 245 0,00 min 897 lux 11,2 C 13,5 C
05.07.2003 06:30 13,5 C 86 % 1014 hPa 0,0 l/m 0,0 m/s (0 Bft) W-SW 250 0,00 min 1,20 klux 11,2 C 13,5 C
05.07.2003 06:35 13,6 C 86 % 1014 hPa 0,0 l/m 1,2 m/s (1 Bft) W-SW 245 0,00 min 1,21 klux 11,3 C 13,6 C
05.07.2003 06:40 13,7 C 85 % 1014 hPa 0,0 l/m 1,9 m/s (1 Bft) W-SW22.5 245 0,00 min 1,27 klux 11,2 C 13,3 C
05.07.2003 06:45 13,8 C 85 % 1014 hPa 0,0 l/m 2,3 m/s (1 Bft) W-SW22.5 250 0,00 min 1,48 klux 11,3 C 12,7 C
05.07.2003 06:50 13,9 C 85 % 1014 hPa 0,0 l/m 2,9 m/s (1 Bft) W-SW22.5 255 0,00 min 1,08 klux 11,4 C 11,7 C
05.07.2003 06:55 13,9 C 85 % 1014 hPa 0,0 l/m 3,9 m/s (1 Bft) W45 260 0,00 min 1,01 klux 11,4 C 10,1 C
05.07.2003 07:00 14,0 C 84 % 1014 hPa 0,0 l/m 3,8 m/s (1 Bft) W-SW22.5 255 0,00 min 2,01 klux 11,3 C 10,4 C
05.07.2003 07:05 14,1 C 84 % 1014 hPa 0,0 l/m 3,0 m/s (1 Bft) W-SW45 255 0,00 min 2,20 klux 11,4 C 11,7 C
05.07.2003 07:10 14,1 C 84 % 1014 hPa 0,0 l/m 4,3 m/s (1 Bft) W-SW22.5 250 0,00 min 1,71 klux 11,4 C 10,0 C
05.07.2003 07:15 14,2 C 84 % 1014 hPa 0,0 l/m 4,4 m/s (1 Bft) W-SW22.5 250 0,00 min 4,46 klux 11,5 C 9,9 C
05.07.2003 07:20 14,4 C 84 % 1014 hPa 0,0 l/m 4,2 m/s (1 Bft) W22.5 260 0,00 min 4,79 klux 11,7 C 10,5 C
05.07.2003 07:25 14,4 C 84 % 1014 hPa 0,0 l/m 4,1 m/s (1 Bft) W-SW22.5 250 0,00 min 5,85 klux 11,7 C 10,6 C
05.07.2003 07:30 14,3 C 84 % 1014 hPa 0,0 l/m 5,1 m/s (1 Bft) W-SW45 245 0,00 min 3,25 klux 11,6 C 9,3 C
05.07.2003 07:35 14,5 C 83 % 1014 hPa 0,0 l/m 4,2 m/s (1 Bft) W-SW45 255 0,00 min 5,42 klux 11,6 C 10,6 C
05.07.2003 07:40 14,5 C 83 % 1014 hPa 0,0 l/m 4,2 m/s (1 Bft) W-SW22.5 255 0,00 min 3,79 klux 11,6 C 10,6 C
05.07.2003 07:45 14,5 C 83 % 1014 hPa 0,0 l/m 4,3 m/s (1 Bft) W22.5 260 0,00 min 3,00 klux 11,6 C 10,5 C
05.07.2003 07:50 14,5 C 83 % 1014 hPa 0,0 l/m 6,7 m/s (2 Bft) W-SW22.5 250 0,00 min 3,10 klux 11,6 C 8,1 C
05.07.2003 07:55 14,5 C 83 % 1014 hPa 0,0 l/m 5,7 m/s (1 Bft) W-SW22.5 250 0,00 min 3,67 klux 11,6 C 9,0 C
05.07.2003 08:00 14,5 C 83 % 1014 hPa 0,0 l/m 4,2 m/s (1 Bft) W45 260 0,00 min 3,88 klux 11,6 C 10,6 C
05.07.2003 08:05 14,5 C 83 % 1014 hPa 0,0 l/m 5,3 m/s (1 Bft) W-SW22.5 250 0,00 min 3,03 klux 11,6 C 9,3 C
05.07.2003 08:10 14,5 C 83 % 1014 hPa 0,0 l/m 5,4 m/s (1 Bft) W-SW22.5 250 0,00 min 3,89 klux 11,6 C 9,2 C
05.07.2003 08:15 14,5 C 83 % 1014 hPa 0,0 l/m 6,2 m/s (2 Bft) W-SW22.5 250 0,00 min 4,73 klux 11,6 C 8,5 C
05.07.2003 08:20 14,5 C 83 % 1014 hPa 0,0 l/m 4,3 m/s (1 Bft) W-SW22.5 255 0,00 min 4,96 klux 11,6 C 10,5 C
05.07.2003 08:25 14,5 C 83 % 1014 hPa 0,0 l/m 5,4 m/s (1 Bft) W-SW22.5 255 0,00 min 5,00 klux 11,6 C 9,3 C
05.07.2003 08:30 14,5 C 83 % 1014 hPa 0,0 l/m 5,2 m/s (1 Bft) W45 260 0,00 min 4,78 klux 11,6 C 9,5 C
05.07.2003 08:35 14,5 C 83 % 1014 hPa 0,0 l/m 5,0 m/s (1 Bft) W-SW22.5 250 0,00 min 4,59 klux 11,6 C 9,7 C
05.07.2003 08:40 14,6 C 83 % 1014 hPa 0,0 l/m 5,1 m/s (1 Bft) W-SW22.5 250 0,00 min 4,69 klux 11,7 C 9,7 C
05.07.2003 08:45 14,6 C 83 % 1014 hPa 0,0 l/m 3,6 m/s (1 Bft) W-SW22.5 245 0,00 min 6,87 klux 11,7 C 11,4 C
05.07.2003 08:50 14,7 C 83 % 1014 hPa 0,0 l/m 6,2 m/s (2 Bft) W-SW22.5 255 0,00 min 10,0 klux 11,8 C 8,8 C
05.07.2003 08:55 14,7 C 83 % 1014 hPa 0,0 l/m 5,4 m/s (1 Bft) W-SW45 250 0,00 min 7,20 klux 11,8 C 9,5 C
05.07.2003 09:00 14,8 C 83 % 1014 hPa 0,0 l/m 5,7 m/s (1 Bft) W-SW22.5 255 0,00 min 6,56 klux 11,9 C 9,4 C
05.07.2003 09:05 14,8 C 83 % 1014 hPa 0,0 l/m 6,0 m/s (2 Bft) W22.5 260 0,00 min 7,20 klux 11,9 C 9,1 C
05.07.2003 09:10 14,8 C 82 % 1014 hPa 0,0 l/m 4,8 m/s (1 Bft) W-SW45 250 0,00 min 8,31 klux 11,8 C 10,3 C
05.07.2003 09:15 14,8 C 82 % 1014 hPa 0,0 l/m 5,8 m/s (2 Bft) W-SW45 255 0,00 min 8,65 klux 11,8 C 9,3 C
05.07.2003 09:20 14,9 C 82 % 1014 hPa 0,0 l/m 5,8 m/s (2 Bft) W-SW22.5 250 0,00 min 6,89 klux 11,9 C 9,4 C
05.07.2003 09:25 14,8 C 82 % 1014 hPa 0,0 l/m 6,8 m/s (2 Bft) W-SW22.5 250 0,00 min 7,61 klux 11,8 C 8,4 C
05.07.2003 09:30 14,8 C 83 % 1014 hPa 0,0 l/m 4,8 m/s (1 Bft) W-SW22.5 255 0,00 min 4,85 klux 11,9 C 10,2 C
05.07.2003 09:35 14,8 C 83 % 1014 hPa 0,0 l/m 7,3 m/s (2 Bft) W-SW22.5 255 0,00 min 3,94 klux 11,9 C 8,1 C
05.07.2003 09:40 14,7 C 83 % 1014 hPa 0,0 l/m 5,8 m/s (2 Bft) W45 260 0,00 min 5,66 klux 11,8 C 9,2 C
05.07.2003 09:45 14,7 C 83 % 1014 hPa 0,0 l/m 8,7 m/s (2 Bft) W45 260 0,00 min 6,06 klux 11,8 C 7,0 C
05.07.2003 09:50 14,7 C 84 % 1014 hPa 0,0 l/m 5,7 m/s (1 Bft) W-SW45 255 0,00 min 7,33 klux 12,0 C 9,2 C
05.07.2003 09:55 14,8 C 84 % 1014 hPa 0,0 l/m 3,7 m/s (1 Bft) W-SW22.5 250 0,00 min 11,4 klux 12,1 C 11,6 C
05.07.2003 10:00 14,8 C 84 % 1014 hPa 0,0 l/m 5,2 m/s (1 Bft) W-SW22.5 255 0,00 min 8,01 klux 12,1 C 9,8 C
05.07.2003 10:05 14,9 C 83 % 1014 hPa 0,0 l/m 4,6 m/s (1 Bft) W-SW22.5 245 0,00 min 10,5 klux 12,0 C 10,5 C
05.07.2003 10:10 15,0 C 82 % 1014 hPa 0,0 l/m 5,1 m/s (1 Bft) W-SW22.5 250 0,00 min 9,7 klux 12,0 C 10,1 C
05.07.2003 10:15 15,1 C 82 % 1014 hPa 0,0 l/m 4,7 m/s (1 Bft) W-SW22.5 255 0,00 min 12,6 klux 12,0 C 10,7 C
05.07.2003 10:20 15,2 C 81 % 1014 hPa 0,0 l/m 5,7 m/s (1 Bft) W-SW22.5 245 0,00 min 10,4 klux 12,0 C 9,9 C
05.07.2003 10:25 15,3 C 81 % 1014 hPa 0,0 l/m 5,9 m/s (2 Bft) W-SW45 250 0,00 min 14,9 klux 12,1 C 9,8 C
05.07.2003 10:30 15,2 C 80 % 1014 hPa 0,0 l/m 5,2 m/s (1 Bft) W-SW45 250 0,00 min 9,4 klux 11,8 C 10,4 C
05.07.2003 10:35 15,2 C 80 % 1014 hPa 0,0 l/m 6,4 m/s (2 Bft) W-SW22.5 245 0,00 min 8,86 klux 11,8 C 9,3 C
05.07.2003 10:40 15,1 C 80 % 1014 hPa 0,0 l/m 4,6 m/s (1 Bft) W22.5 260 0,00 min 6,49 klux 11,7 C 10,8 C
05.07.2003 10:45 15,1 C 81 % 1014 hPa 0,0 l/m 6,7 m/s (2 Bft) W-SW45 255 0,00 min 8,51 klux 11,9 C 8,9 C
05.07.2003 10:50 15,1 C 81 % 1014 hPa 0,0 l/m 8,0 m/s (2 Bft) W45 260 0,00 min 7,49 klux 11,9 C 8,0 C
05.07.2003 10:55 15,1 C 81 % 1014 hPa 0,0 l/m 6,2 m/s (2 Bft) W-SW45 255 0,00 min 10,0 klux 11,9 C 9,3 C
05.07.2003 11:00 15,1 C 81 % 1014 hPa 0,0 l/m 7,5 m/s (2 Bft) W-SW45 250 0,00 min 11,0 klux 11,9 C 8,4 C
05.07.2003 11:05 15,1 C 81 % 1014 hPa 0,0 l/m 5,0 m/s (1 Bft) W-SW22.5 255 0,00 min 8,34 klux 11,9 C 10,4 C
05.07.2003 11:10 15,1 C 81 % 1014 hPa 0,0 l/m 6,5 m/s (2 Bft) W22.5 260 0,00 min 8,93 klux 11,9 C 9,1 C
05.07.2003 11:15 15,1 C 81 % 1015 hPa 0,0 l/m 5,8 m/s (2 Bft) W45 260 0,00 min 9,6 klux 11,9 C 9,6 C
05.07.2003 11:20 15,0 C 81 % 1015 hPa 0,0 l/m 7,3 m/s (2 Bft) W-SW22.5 255 0,00 min 10,6 klux 11,8 C 8,3 C
05.07.2003 11:25 14,9 C 83 % 1015 hPa 0,0 l/m 8,4 m/s (2 Bft) W-SW67.5 250 0,00 min 9,3 klux 12,0 C 7,5 C
05.07.2003 11:30 15,0 C 82 % 1015 hPa 0,0 l/m 6,2 m/s (2 Bft) W-SW22.5 255 0,00 min 11,1 klux 12,0 C 9,2 C
05.07.2003 11:35 15,1 C 81 % 1015 hPa 0,0 l/m 3,9 m/s (1 Bft) W-SW45 250 0,00 min 16,2 klux 11,9 C 11,6 C
05.07.2003 11:40 15,2 C 81 % 1015 hPa 0,0 l/m 5,2 m/s (1 Bft) W-SW45 250 0,00 min 12,9 klux 12,0 C 10,3 C
05.07.2003 11:45 15,3 C 80 % 1015 hPa 0,0 l/m 6,3 m/s (2 Bft) W-SW45 250 0,00 min 10,5 klux 11,9 C 9,5 C
05.07.2003 11:50 15,3 C 80 % 1015 hPa 0,0 l/m 8,5 m/s (2 Bft) W-SW22.5 250 0,00 min 10,8 klux 11,9 C 8,0 C
05.07.2003 11:55 15,4 C 80 % 1015 hPa 0,0 l/m 6,6 m/s (2 Bft) W-SW45 250 0,00 min 10,3 klux 12,0 C 9,4 C
05.07.2003 12:00 15,4 C 80 % 1015 hPa 0,0 l/m 3,9 m/s (1 Bft) W-SW45 255 0,00 min 16,0 klux 12,0 C 12,0 C
05.07.2003 12:05 15,5 C 80 % 1015 hPa 0,0 l/m 4,4 m/s (1 Bft) W-SW45 250 0,00 min 14,3 klux 12,1 C 11,6 C
05.07.2003 12:10 15,3 C 80 % 1015 hPa 0,0 l/m 4,7 m/s (1 Bft) W22.5 260 0,00 min 12,6 klux 11,9 C 10,9 C
05.07.2003 12:15 15,3 C 81 % 1015 hPa 0,0 l/m 5,2 m/s (1 Bft) W45 260 0,00 min 9,6 klux 12,1 C 10,5 C
05.07.2003 12:20 15,2 C 81 % 1015 hPa 0,0 l/m 5,8 m/s (2 Bft) W45 265 0,00 min 10,2 klux 12,0 C 9,8 C
05.07.2003 12:25 15,4 C 81 % 1015 hPa 0,0 l/m 5,1 m/s (1 Bft) W45 260 0,00 min 22,5 klux 12,2 C 10,7 C
05.07.2003 12:30 15,9 C 80 % 1015 hPa 0,0 l/m 1,6 m/s (1 Bft) W22.5 270 0,00 min 25,6 klux 12,5 C 15,9 C
05.07.2003 12:35 15,7 C 79 % 1015 hPa 0,0 l/m 4,2 m/s (1 Bft) W22.5 260 0,00 min 19,1 klux 12,1 C 12,0 C
05.07.2003 12:40 15,6 C 80 % 1015 hPa 0,0 l/m 3,8 m/s (1 Bft) W22.5 265 0,00 min 9,6 klux 12,2 C 12,4 C
05.07.2003 12:45 15,5 C 80 % 1015 hPa 0,0 l/m 4,7 m/s (1 Bft) W45 265 0,00 min 10,9 klux 12,1 C 11,2 C
05.07.2003 12:50 15,3 C 80 % 1015 hPa 0,0 l/m 6,4 m/s (2 Bft) W22.5 265 0,00 min 9,3 klux 11,9 C 9,5 C
05.07.2003 12:55 15,2 C 80 % 1015 hPa 0,0 l/m 4,5 m/s (1 Bft) W22.5 265 0,00 min 7,07 klux 11,8 C 11,0 C
05.07.2003 13:00 15,6 C 80 % 1015 hPa 0,0 l/m 5,9 m/s (2 Bft) W-SW45 255 0,00 min 40,0 klux 12,2 C 10,2 C
05.07.2003 13:05 16,4 C 76 % 1015 hPa 0,0 l/m 4,5 m/s (1 Bft) W-SW45 255 0,00 min 51,0 klux 12,2 C 12,5 C
05.07.2003 13:10 16,2 C 76 % 1015 hPa 0,0 l/m 7,5 m/s (2 Bft) W-SW45 255 0,00 min 50,7 klux 12,0 C 9,9 C
05.07.2003 13:15 16,5 C 76 % 1015 hPa 0,0 l/m 8,5 m/s (2 Bft) W-SW45 255 0,00 min 41,6 klux 12,3 C 9,7 C
05.07.2003 13:20 16,1 C 76 % 1015 hPa 0,0 l/m 8,1 m/s (2 Bft) W45 260 0,00 min 41,6 klux 11,9 C 9,4 C
05.07.2003 13:25 15,9 C 76 % 1015 hPa 0,0 l/m 6,9 m/s (2 Bft) W45 260 0,00 min 18,6 klux 11,7 C 9,9 C
05.07.2003 13:30 15,9 C 76 % 1015 hPa 0,0 l/m 5,5 m/s (1 Bft) W-SW45 255 0,00 min 20,5 klux 11,7 C 11,0 C
05.07.2003 13:35 15,9 C 76 % 1015 hPa 0,0 l/m 7,8 m/s (2 Bft) W45 260 0,00 min 36,8 klux 11,7 C 9,2 C
05.07.2003 13:40 16,1 C 75 % 1015 hPa 0,0 l/m 9,0 m/s (2 Bft) W22.5 260 0,00 min 41,8 klux 11,7 C 8,9 C
05.07.2003 13:45 16,3 C 74 % 1015 hPa 0,0 l/m 8,6 m/s (2 Bft) W45 270 0,00 min 41,0 klux 11,7 C 9,4 C
05.07.2003 13:50 16,1 C 74 % 1015 hPa 0,0 l/m 8,1 m/s (2 Bft) W22.5 265 0,00 min 30,8 klux 11,5 C 9,3 C
05.07.2003 13:55 16,1 C 74 % 1015 hPa 0,0 l/m 5,9 m/s (2 Bft) W22.5 265 0,00 min 22,6 klux 11,5 C 10,9 C
05.07.2003 14:00 16,0 C 74 % 1015 hPa 0,0 l/m 6,0 m/s (2 Bft) W45 260 0,00 min 23,6 klux 11,4 C 10,7 C
05.07.2003 14:05 15,9 C 75 % 1015 hPa 0,0 l/m 7,4 m/s (2 Bft) W45 265 0,00 min 20,8 klux 11,5 C 9,5 C
05.07.2003 14:10 15,8 C 75 % 1015 hPa 0,0 l/m 7,0 m/s (2 Bft) W67.5 260 0,00 min 16,5 klux 11,4 C 9,7 C
05.07.2003 14:15 15,7 C 75 % 1015 hPa 0,0 l/m 6,5 m/s (2 Bft) W-SW22.5 255 0,00 min 16,8 klux 11,3 C 9,9 C
05.07.2003 14:20 15,8 C 75 % 1016 hPa 0,0 l/m 5,2 m/s (1 Bft) W45 260 0,00 min 17,7 klux 11,4 C 11,1 C
05.07.2003 14:25 15,9 C 75 % 1016 hPa 0,0 l/m 4,9 m/s (1 Bft) W-SW67.5 250 0,00 min 18,6 klux 11,5 C 11,5 C
05.07.2003 14:30 16,1 C 74 % 1016 hPa 0,0 l/m 6,8 m/s (2 Bft) W45 265 0,00 min 47,1 klux 11,5 C 10,2 C
05.07.2003 14:35 16,6 C 73 % 1016 hPa 0,0 l/m 5,3 m/s (1 Bft) W-SW22.5 255 0,00 min 39,2 klux 11,7 C 12,0 C
05.07.2003 14:40 16,6 C 72 % 1016 hPa 0,0 l/m 4,8 m/s (1 Bft) W-SW22.5 250 0,00 min 36,3 klux 11,5 C 12,5 C
05.07.2003 14:45 16,8 C 72 % 1016 hPa 0,0 l/m 5,6 m/s (1 Bft) W22.5 260 0,00 min 36,2 klux 11,7 C 12,1 C
05.07.2003 14:50 16,7 C 71 % 1016 hPa 0,0 l/m 7,2 m/s (2 Bft) W45 260 0,00 min 33,7 klux 11,4 C 10,7 C
05.07.2003 14:55 16,4 C 72 % 1016 hPa 0,0 l/m 6,8 m/s (2 Bft) W-SW45 255 0,00 min 30,7 klux 11,3 C 10,6 C
05.07.2003 15:00 16,8 C 73 % 1016 hPa 0,0 l/m 5,1 m/s (1 Bft) W-SW45 245 0,00 min 32,1 klux 11,9 C 12,4 C
05.07.2003 15:05 16,5 C 72 % 1016 hPa 0,0 l/m 7,2 m/s (2 Bft) W-SW67.5 255 0,00 min 22,5 klux 11,4 C 10,5 C
05.07.2003 15:10 16,2 C 72 % 1016 hPa 0,0 l/m 5,2 m/s (1 Bft) W-SW45 250 0,00 min 15,1 klux 11,1 C 11,6 C
05.07.2003 15:15 16,1 C 73 % 1016 hPa 0,0 l/m 5,7 m/s (1 Bft) W45 265 0,00 min 11,0 klux 11,3 C 11,0 C
05.07.2003 15:20 16,0 C 73 % 1016 hPa 0,0 l/m 7,3 m/s (2 Bft) W22.5 265 0,00 min 10,3 klux 11,2 C 9,7 C
05.07.2003 15:25 15,8 C 75 % 1016 hPa 0,0 l/m 7,2 m/s (2 Bft) W45 265 0,00 min 8,96 klux 11,4 C 9,5 C
05.07.2003 15:30 15,4 C 75 % 1016 hPa 0,0 l/m 9,1 m/s (2 Bft) W45 260 0,00 min 13,4 klux 11,0 C 7,8 C
05.07.2003 15:35 15,4 C 75 % 1016 hPa 0,0 l/m 6,0 m/s (2 Bft) W45 270 0,00 min 10,0 klux 11,0 C 9,9 C
05.07.2003 15:40 15,6 C 76 % 1016 hPa 0,0 l/m 5,0 m/s (1 Bft) W-SW67.5 255 0,00 min 26,1 klux 11,4 C 11,0 C
05.07.2003 15:45 16,1 C 72 % 1016 hPa 0,0 l/m 6,9 m/s (2 Bft) W45 260 0,00 min 38,1 klux 11,0 C 10,1 C
05.07.2003 15:50 17,8 C 69 % 1016 hPa 0,0 l/m 6,4 m/s (2 Bft) W67.5 260 5,00 min 102 klux 12,0 C 12,7 C
05.07.2003 15:55 16,9 C 68 % 1016 hPa 0,0 l/m 8,6 m/s (2 Bft) W-SW45 250 0,00 min 48,7 klux 11,0 C 10,2 C
05.07.2003 16:00 17,1 C 69 % 1016 hPa 0,0 l/m 4,2 m/s (1 Bft) W-SW45 255 0,00 min 28,9 klux 11,4 C 13,7 C
05.07.2003 16:05 16,6 C 71 % 1016 hPa 0,0 l/m 4,8 m/s (1 Bft) W-SW22.5 250 0,00 min 28,9 klux 11,3 C 12,5 C
05.07.2003 16:10 16,7 C 71 % 1016 hPa 0,0 l/m 6,0 m/s (2 Bft) W-SW22.5 255 0,00 min 51,0 klux 11,4 C 11,6 C
05.07.2003 16:15 16,9 C 71 % 1016 hPa 0,0 l/m 4,0 m/s (1 Bft) W45 260 0,00 min 39,8 klux 11,6 C 13,7 C
05.07.2003 16:20 17,1 C 68 % 1016 hPa 0,0 l/m 8,1 m/s (2 Bft) W-SW45 255 5,00 min 79,4 klux 11,1 C 10,8 C
05.07.2003 16:25 17,6 C 68 % 1016 hPa 0,0 l/m 5,1 m/s (1 Bft) W45 260 5,00 min 58,0 klux 11,6 C 13,5 C
05.07.2003 16:30 17,0 C 67 % 1016 hPa 0,0 l/m 5,1 m/s (1 Bft) W45 260 0,00 min 36,6 klux 10,8 C 12,8 C
05.07.2003 16:35 16,7 C 69 % 1016 hPa 0,0 l/m 9,0 m/s (2 Bft) W45 265 0,00 min 25,7 klux 11,0 C 9,7 C
05.07.2003 16:40 16,7 C 68 % 1016 hPa 0,0 l/m 6,9 m/s (2 Bft) W45 260 0,00 min 32,0 klux 10,8 C 10,9 C
05.07.2003 16:45 16,9 C 69 % 1016 hPa 0,0 l/m 6,1 m/s (2 Bft) W22.5 260 0,00 min 26,7 klux 11,2 C 11,8 C
05.07.2003 16:50 16,6 C 68 % 1016 hPa 0,0 l/m 8,8 m/s (2 Bft) W45 260 0,00 min 30,9 klux 10,7 C 9,7 C
05.07.2003 16:55 16,6 C 68 % 1016 hPa 0,0 l/m 7,5 m/s (2 Bft) W22.5 260 0,00 min 41,8 klux 10,7 C 10,4 C
05.07.2003 17:00 16,8 C 68 % 1016 hPa 0,0 l/m 7,6 m/s (2 Bft) W-SW22.5 250 0,00 min 48,4 klux 10,9 C 10,6 C
05.07.2003 17:05 16,9 C 68 % 1016 hPa 0,0 l/m 10,6 m/s (2 Bft) W-SW45 255 0,00 min 50,0 klux 11,0 C 9,3 C
05.07.2003 17:10 16,7 C 68 % 1016 hPa 0,0 l/m 8,7 m/s (2 Bft) W45 265 0,00 min 31,5 klux 10,8 C 9,9 C
05.07.2003 17:15 16,8 C 68 % 1016 hPa 0,0 l/m 8,3 m/s (2 Bft) W-SW45 250 0,00 min 40,8 klux 10,9 C 10,2 C
05.07.2003 17:20 16,8 C 67 % 1016 hPa 0,0 l/m 7,5 m/s (2 Bft) W45 265 5,00 min 51,2 klux 10,6 C 10,7 C
05.07.2003 17:25 17,2 C 66 % 1016 hPa 0,0 l/m 7,0 m/s (2 Bft) W-SW22.5 245 5,00 min 80,6 klux 10,8 C 11,6 C
05.07.2003 17:30 16,9 C 68 % 1016 hPa 0,0 l/m 8,3 m/s (2 Bft) W-SW22.5 255 0,00 min 42,9 klux 11,0 C 10,4 C
05.07.2003 17:35 16,7 C 68 % 1016 hPa 0,0 l/m 8,6 m/s (2 Bft) W-SW45 245 0,00 min 37,5 klux 10,8 C 9,9 C
05.07.2003 17:40 16,6 C 69 % 1016 hPa 0,0 l/m 6,5 m/s (2 Bft) W-SW45 255 0,00 min 20,2 klux 10,9 C 11,1 C
05.07.2003 17:45 16,4 C 70 % 1016 hPa 0,0 l/m 7,5 m/s (2 Bft) W45 260 0,00 min 13,2 klux 10,9 C 10,1 C
05.07.2003 17:50 16,3 C 70 % 1016 hPa 0,0 l/m 4,6 m/s (1 Bft) W22.5 260 0,00 min 7,97 klux 10,8 C 12,4 C
05.07.2003 17:55 16,1 C 71 % 1016 hPa 0,0 l/m 3,5 m/s (1 Bft) W-SW45 250 0,00 min 5,48 klux 10,8 C 13,4 C
05.07.2003 18:00 15,9 C 72 % 1016 hPa 0,0 l/m 4,5 m/s (1 Bft) W-SW22.5 255 0,00 min 5,81 klux 10,9 C 11,9 C
05.07.2003 18:05 15,9 C 72 % 1016 hPa 0,0 l/m 4,8 m/s (1 Bft) W22.5 260 0,00 min 7,86 klux 10,9 C 11,6 C
05.07.2003 18:10 15,8 C 72 % 1016 hPa 0,0 l/m 4,8 m/s (1 Bft) W45 265 0,00 min 7,22 klux 10,8 C 11,5 C
05.07.2003 18:15 15,8 C 72 % 1016 hPa 0,0 l/m 6,1 m/s (2 Bft) W45 270 0,00 min 7,73 klux 10,8 C 10,4 C
05.07.2003 18:20 15,7 C 72 % 1016 hPa 0,0 l/m 4,6 m/s (1 Bft) W45 265 0,00 min 8,34 klux 10,7 C 11,6 C
05.07.2003 18:25 15,7 C 72 % 1016 hPa 0,0 l/m 5,1 m/s (1 Bft) W-SW45 250 0,00 min 7,53 klux 10,7 C 11,0 C
05.07.2003 18:30 15,7 C 72 % 1016 hPa 0,0 l/m 4,3 m/s (1 Bft) W-SW22.5 255 0,00 min 8,12 klux 10,7 C 11,9 C
05.07.2003 18:35 15,7 C 71 % 1016 hPa 0,0 l/m 6,3 m/s (2 Bft) W67.5 270 0,00 min 10,6 klux 10,5 C 10,1 C
05.07.2003 18:40 15,7 C 71 % 1016 hPa 0,0 l/m 5,3 m/s (1 Bft) W-SW45 255 0,00 min 13,0 klux 10,5 C 10,9 C
05.07.2003 18:45 15,9 C 71 % 1016 hPa 0,0 l/m 6,1 m/s (2 Bft) W-SW22.5 255 0,00 min 12,7 klux 10,6 C 10,4 C
05.07.2003 18:50 16,0 C 70 % 1016 hPa 0,0 l/m 4,1 m/s (1 Bft) W-SW22.5 250 0,00 min 16,8 klux 10,5 C 12,5 C
05.07.2003 18:55 16,0 C 70 % 1016 hPa 0,0 l/m 4,3 m/s (1 Bft) W-SW45 250 0,00 min 17,2 klux 10,5 C 12,2 C
05.07.2003 19:00 15,9 C 71 % 1016 hPa 0,0 l/m 5,2 m/s (1 Bft) W-SW45 250 0,00 min 10,9 klux 10,6 C 11,2 C
05.07.2003 19:05 15,8 C 71 % 1016 hPa 0,0 l/m 4,9 m/s (1 Bft) W-SW22.5 250 0,00 min 9,6 klux 10,6 C 11,3 C
05.07.2003 19:10 15,9 C 71 % 1016 hPa 0,0 l/m 2,9 m/s (1 Bft) W22.5 265 0,00 min 11,1 klux 10,6 C 13,9 C
05.07.2003 19:15 15,8 C 72 % 1016 hPa 0,0 l/m 3,1 m/s (1 Bft) W22.5 260 0,00 min 8,95 klux 10,8 C 13,5 C
05.07.2003 19:20 15,6 C 72 % 1016 hPa 0,0 l/m 4,6 m/s (1 Bft) W-SW22.5 245 0,00 min 6,25 klux 10,6 C 11,5 C
05.07.2003 19:25 15,7 C 73 % 1016 hPa 0,0 l/m 3,5 m/s (1 Bft) W22.5 260 0,00 min 6,01 klux 10,9 C 12,9 C
05.07.2003 19:30 15,7 C 72 % 1016 hPa 0,0 l/m 2,9 m/s (1 Bft) W-SW45 250 0,00 min 7,09 klux 10,7 C 13,6 C
05.07.2003 19:35 15,6 C 73 % 1016 hPa 0,0 l/m 3,1 m/s (1 Bft) W-SW22.5 255 0,00 min 4,35 klux 10,8 C 13,4 C
05.07.2003 19:40 15,5 C 73 % 1016 hPa 0,0 l/m 2,0 m/s (1 Bft) W-SW22.5 245 0,00 min 2,32 klux 10,7 C 15,1 C
05.07.2003 19:45 15,4 C 73 % 1016 hPa 0,0 l/m 2,4 m/s (1 Bft) W22.5 260 0,00 min 2,15 klux 10,6 C 14,3 C
05.07.2003 19:50 15,4 C 74 % 1017 hPa 0,0 l/m 2,8 m/s (1 Bft) W22.5 260 0,00 min 2,50 klux 10,8 C 13,6 C
05.07.2003 19:55 15,3 C 74 % 1017 hPa 0,0 l/m 3,4 m/s (1 Bft) W-SW22.5 250 0,00 min 3,77 klux 10,7 C 12,5 C
05.07.2003 20:00 15,3 C 74 % 1017 hPa 0,0 l/m 1,6 m/s (1 Bft) W22.5 265 0,00 min 3,58 klux 10,7 C 15,3 C
05.07.2003 20:05 15,2 C 75 % 1017 hPa 0,0 l/m 1,6 m/s (1 Bft) W-SW22.5 250 0,00 min 4,19 klux 10,8 C 15,2 C
05.07.2003 20:10 15,2 C 75 % 1017 hPa 0,0 l/m 2,3 m/s (1 Bft) W22.5 260 0,00 min 4,98 klux 10,8 C 14,2 C
05.07.2003 20:15 15,1 C 75 % 1017 hPa 0,0 l/m 2,7 m/s (1 Bft) W22.5 270 0,00 min 3,90 klux 10,7 C 13,3 C
05.07.2003 20:20 15,1 C 76 % 1017 hPa 0,0 l/m 3,7 m/s (1 Bft) W-SW22.5 255 0,00 min 2,58 klux 10,9 C 11,9 C
05.07.2003 20:25 15,1 C 76 % 1017 hPa 0,0 l/m 2,9 m/s (1 Bft) W-SW22.5 255 0,00 min 3,30 klux 10,9 C 13,0 C
05.07.2003 20:30 14,9 C 77 % 1017 hPa 0,0 l/m 3,1 m/s (1 Bft) W67.5 260 0,00 min 3,03 klux 10,9 C 12,5 C
05.07.2003 20:35 14,9 C 77 % 1017 hPa 0,0 l/m 3,7 m/s (1 Bft) W-SW22.5 250 0,00 min 2,05 klux 10,9 C 11,6 C
05.07.2003 20:40 14,8 C 77 % 1017 hPa 0,0 l/m 3,9 m/s (1 Bft) W45 265 0,00 min 1,64 klux 10,8 C 11,3 C
05.07.2003 20:45 14,9 C 77 % 1017 hPa 0,0 l/m 3,9 m/s (1 Bft) W45 260 0,00 min 1,62 klux 10,9 C 11,4 C
05.07.2003 20:50 14,9 C 77 % 1017 hPa 0,0 l/m 1,3 m/s (1 Bft) W-SW45 250 0,00 min 1,16 klux 10,9 C 14,9 C
05.07.2003 20:55 14,8 C 77 % 1017 hPa 0,0 l/m 4,1 m/s (1 Bft) W22.5 260 0,00 min 1,88 klux 10,8 C 11,1 C
05.07.2003 21:00 14,8 C 78 % 1017 hPa 0,0 l/m 1,6 m/s (1 Bft) W45 280 0,00 min 1,43 klux 11,0 C 14,8 C
05.07.2003 21:05 14,8 C 78 % 1017 hPa 0,0 l/m 1,8 m/s (1 Bft) W-SW22.5 250 0,00 min 1,35 klux 11,0 C 14,8 C
05.07.2003 21:10 14,8 C 78 % 1017 hPa 0,0 l/m 1,6 m/s (1 Bft) W 260 0,00 min 1,04 klux 11,0 C 14,8 C
05.07.2003 21:15 14,8 C 78 % 1017 hPa 0,0 l/m 2,6 m/s (1 Bft) W-SW22.5 250 0,00 min 768 lux 11,0 C 13,3 C
05.07.2003 21:20 14,7 C 78 % 1017 hPa 0,0 l/m 1,1 m/s (1 Bft) W-SW22.5 245 0,00 min 594 lux 10,9 C 14,7 C
05.07.2003 21:25 14,7 C 78 % 1017 hPa 0,0 l/m 1,6 m/s (1 Bft) W22.5 260 0,00 min 396 lux 10,9 C 14,7 C
05.07.2003 21:30 14,7 C 78 % 1017 hPa 0,0 l/m 2,8 m/s (1 Bft) W-SW22.5 240 0,00 min 312 lux 10,9 C 12,7 C
05.07.2003 21:35 14,7 C 78 % 1017 hPa 0,0 l/m 2,5 m/s (1 Bft) W-SW22.5 250 0,00 min 306 lux 10,9 C 13,3 C
05.07.2003 21:40 14,6 C 78 % 1017 hPa 0,0 l/m 2,6 m/s (1 Bft) W-SW22.5 250 0,00 min 166 lux 10,8 C 13,0 C
05.07.2003 21:45 14,6 C 78 % 1017 hPa 0,0 l/m 1,9 m/s (1 Bft) W-SW22.5 255 0,00 min 121 lux 10,8 C 14,4 C
05.07.2003 21:50 14,6 C 78 % 1017 hPa 0,0 l/m 1,2 m/s (1 Bft) W-SW22.5 245 0,00 min 107 lux 10,8 C 14,6 C
05.07.2003 21:55 14,6 C 78 % 1017 hPa 0,0 l/m 2,3 m/s (1 Bft) W-SW22.5 250 0,00 min 71 lux 10,8 C 13,6 C
05.07.2003 22:00 14,6 C 78 % 1017 hPa 0,0 l/m 2,4 m/s (1 Bft) W-SW22.5 255 0,00 min 48 lux 10,8 C 13,4 C
05.07.2003 22:05 14,6 C 79 % 1017 hPa 0,0 l/m 2,4 m/s (1 Bft) W-SW22.5 250 0,00 min 31 lux 11,0 C 13,3 C
05.07.2003 22:10 14,5 C 79 % 1017 hPa 0,0 l/m 2,9 m/s (1 Bft) W-SW22.5 255 0,00 min 22 lux 10,9 C 12,3 C
05.07.2003 22:15 14,5 C 79 % 1017 hPa 0,0 l/m 1,9 m/s (1 Bft) W-SW22.5 250 0,00 min 8 lux 10,9 C 14,3 C
05.07.2003 22:20 14,6 C 79 % 1017 hPa 0,0 l/m 2,0 m/s (1 Bft) W-SW22.5 250 0,00 min 6 lux 11,0 C 14,2 C
05.07.2003 22:25 14,6 C 79 % 1017 hPa 0,0 l/m 2,5 m/s (1 Bft) W-SW22.5 250 0,00 min 2 lux 11,0 C 13,2 C
05.07.2003 22:30 14,6 C 79 % 1017 hPa 0,0 l/m 2,5 m/s (1 Bft) W-SW22.5 245 0,00 min 0 lux 11,0 C 13,2 C
05.07.2003 22:35 14,6 C 79 % 1017 hPa 0,0 l/m 2,8 m/s (1 Bft) W-SW45 250 0,00 min 0 lux 11,0 C 12,7 C
05.07.2003 22:40 14,5 C 79 % 1017 hPa 0,0 l/m 2,7 m/s (1 Bft) W-SW22.5 255 0,00 min 0 lux 10,9 C 12,7 C
05.07.2003 22:45 14,6 C 79 % 1017 hPa 0,0 l/m 2,9 m/s (1 Bft) W-SW22.5 250 0,00 min 0 lux 11,0 C 12,5 C
05.07.2003 22:50 14,6 C 79 % 1017 hPa 0,0 l/m 3,9 m/s (1 Bft) W-SW22.5 250 0,00 min 0 lux 11,0 C 11,0 C
05.07.2003 22:55 14,6 C 79 % 1017 hPa 0,0 l/m 1,8 m/s (1 Bft) W22.5 260 0,00 min 0 lux 11,0 C 14,6 C
05.07.2003 23:00 14,5 C 79 % 1017 hPa 0,0 l/m 2,7 m/s (1 Bft) W22.5 270 0,00 min 0 lux 10,9 C 12,7 C
05.07.2003 23:05 14,6 C 80 % 1017 hPa 0,0 l/m 2,4 m/s (1 Bft) W-SW22.5 250 0,00 min 0 lux 11,2 C 13,3 C
05.07.2003 23:10 14,5 C 80 % 1017 hPa 0,0 l/m 3,0 m/s (1 Bft) W-SW22.5 250 0,00 min 0 lux 11,1 C 12,2 C
05.07.2003 23:15 14,5 C 80 % 1017 hPa 0,0 l/m 3,3 m/s (1 Bft) W-SW22.5 250 0,00 min 0 lux 11,1 C 11,8 C
05.07.2003 23:20 14,5 C 80 % 1017 hPa 0,0 l/m 2,2 m/s (1 Bft) W22.5 260 0,00 min 0 lux 11,1 C 13,6 C
05.07.2003 23:25 14,5 C 80 % 1017 hPa 0,0 l/m 4,8 m/s (1 Bft) W-SW22.5 255 0,00 min 0 lux 11,1 C 9,9 C
05.07.2003 23:30 14,5 C 80 % 1017 hPa 0,0 l/m 1,7 m/s (1 Bft) W-SW45 250 0,00 min 0 lux 11,1 C 14,5 C
05.07.2003 23:35 14,5 C 80 % 1017 hPa 0,0 l/m 2,3 m/s (1 Bft) W-SW22.5 250 0,00 min 0 lux 11,1 C 13,4 C
05.07.2003 23:40 14,5 C 80 % 1017 hPa 0,0 l/m 2,7 m/s (1 Bft) W-SW22.5 250 0,00 min 0 lux 11,1 C 12,8 C
05.07.2003 23:45 14,5 C 80 % 1017 hPa 0,0 l/m 2,9 m/s (1 Bft) W-SW22.5 250 0,00 min 0 lux 11,1 C 12,3 C
05.07.2003 23:50 14,5 C 80 % 1017 hPa 0,0 l/m 3,6 m/s (1 Bft) W-SW22.5 250 0,00 min 0 lux 11,1 C 11,3 C
05.07.2003 23:55 14,5 C 80 % 1017 hPa 0,0 l/m 1,9 m/s (1 Bft) W-SW22.5 255 0,00 min 0 lux 11,1 C 14,2 C
_ Min-Zeit 05:20 17:25 00:00 - 06:25 - - - - 00:45 00:30
Minimum _ 13,4 C 66 % 1014 hPa - 0,0 m/s (0 Bft) - - - - 9,8 C 6,3 C
_ Max-Zeit 15:50 04:05 19:50 04:05 17:05 - - 15:50 15:50 12:30 12:30
Maximum _ 17,8 C 86 % 1017 hPa 0,4 l/m 10,6 m/s
W-SW (5 Bft)
- - 5,00 min 102 klux 12,5 C 15,9 C
Durchschnitt _ 14,9 C 78 % 1015 hPa #0,4 l/m 4,6 m/s (3 Bft) W-SW - #25 min. 10,0 klux 11,1 C 11,0 C